Temperature
17 17 17 17 17 17 17 17 17 17 17 17 17 17 16 16 16 16 16 16 16 16 16 16 16 16 15 15 15 15 15 15 15 15 15 15 15 15
17 17 17 17 17 17 17 17 17 17 16 16 16 16 16 16 16 16 15 15 15 15 15 15 15 15 15 15 15 15 15 15 15 15 15 15 15 15
17 17 17 17 17 17 17 17 16 16 16 16 16 16 16 16 16 16 15 15 15 15 15 15 15 15 15 15 15 15 15 15 15 15 14 14 14 14
16 16 16 16 16 16 16 16 16 16 16 16 16 16 16 15 15 15 15 15 15 15 15 15 15 15 15 14 14 14 14 14 14 14 14 14 14 14
16 16 16 16 16 16 16 16 16 16 15 15 15 15 15 15 15 15 15 15 15 15 15 15 14 14 14 14 14 14 14 14 14 14 14 14 14 14
16 16 16 16 16 16 16 15 15 15 15 15 15 15 15 15 15 15 14 15 14 14 14 14 14 14 14 14 14 14 14 14 14 14 14 14 14 14
16 16 16 16 15 15 15 15 15 15 15 15 14 14 14 14 14 14 14 14 14 14 14 14 14 14 14 14 14 14 13 13 13 13 13 13 13 13
16 16 16 15 15 15 15 15 14 14 14 14 14 14 14 14 14 14 14 14 13 14 14 14 14 14 14 14 14 13 13 13 13 13 13 13 13 13
15 15 15 15 15 15 15 14 14 14 14 14 14 14 14 14 14 13 13 13 13 13 13 13 13 13 13 13 13 13 13 13 13 13 13 13 13 13
15 15 15 15 14 14 14 14 14 14 14 13 13 13 13 13 13 13 13 13 13 13 13 13 13 13 13 13 13 13 13 13 13 13 13 13 13 13
15 14 14 14 14 14 14 14 14 14 13 13 13 13 13 13 13 13 13 13 13 13 12 12 12 13 13 13 13 13 13 12 12 12 12 12 12 12
14 14 14 14 14 14 14 13 13 13 13 13 13 13 12 12 12 12 12 12 12 12 12 12 12 12 12 12 12 12 12 12 12 12 12 12 12 12
14 14 14 14 13 13 13 13 13 13 13 12 13 13 13 12 12 12 12 12 12 12 12 12 12 12 11 12 12 12 12 12 12 12 12 12 12 12
14 13 13 13 13 13 13 13 13 12 12 12 12 12 12 12 12 12 12 12 12 12 12 11 11 11 11 11 11 11 11 11 12 12 12 12 12 11
13 13 13 13 13 13 13 13 12 12 12 12 12 12 12 12 12 12 12 12 12 11 11 11 11 11 11 11 11 11 11 11 11 11 11 11 11 11
13 13 13 12 12 12 12 12 12 12 12 12 12 12 12 11 11 11 11 11 11 11 11 11 11 11 11 11 11 11 11 10 11 11 11 11 11 11
12 12 12 12 12 12 12 12 12 12 11 11 11 11 11 11 11 11 11 11 11 11 11 11 11 10 10 10 10 10 10 10 10 10 10 10 10 10
12 12 12 12 12 12 11 11 11 11 11 11 11 11 11 10 10 10 10 10 10 10 10 10 10 10 10 10 10 10 10 10 10 10 10 10 10 10
12 11 11 11 11 11 11 11 11 11 11 11 10 10 10 10 10 10 10 10 10 10 10 9 9 9 9 9 10 10 9 9 9 10 10 10 10 10
11 11 11 11 11 11 11 11 10 11 10 10 10 10 10 10 10 10 9 9 9 9 9 9 9 9 9 9 9 9 9 9 9 9 9 9 9 9
11 11 10 10 10 10 10 10 10 10 10 10 10 9 9 9 9 9 9 9 9 9 9 9 9 9 9 9 9 9 9 9 9 9 9 9 9 9
10 10 10 10 10 10 10 10 10 10 9 9 9 9 9 9 9 9 9 9 8 8 8 8 8 8 8 8 8 8 8 9 9 8 8 8 8 8
10 10 10 9 9 9 9 9 9 9 9 9 9 9 9 9 8 8 8 8 8 8 8 8 8 8 8 8 8 8 8 8 8 8 8 8 8 8
Wind_Speed
1 1 1 1 1 1 2 3 3 2 2 3 2 2 2 4 5 6 6 8 9 8 8 8 7 7 6 6 7 7 7 7 7 7 7 7 8 9
1 0 1 1 1 0 1 1 2 3 3 3 3 2 2 3 5 5 6 7 9 9 9 9 8 8 7 7 6 6 6 6 7 7 7 8 7 8
1 0 1 1 0 1 1 1 1 2 2 2 2 1 1 1 2 4 5 5 7 10 10 10 9 9 9 8 7 7 7 7 7 7 7 7 8 7
1 1 1 1 0 0 1 1 1 2 3 2 1 1 2 2 2 2 3 4 6 8 10 11 10 10 10 10 9 8 8 7 7 7 6 7 7 7
2 1 1 1 0 0 0 1 1 0 1 2 1 1 1 1 1 2 2 2 4 6 9 10 10 10 11 11 11 10 9 8 8 8 7 7 7 7
2 2 1 2 2 2 1 1 1 0 1 1 0 1 1 1 0 1 2 2 2 3 4 6 8 9 10 11 11 11 10 10 10 9 9 8 8 7
1 1 1 1 2 1 1 2 1 1 1 1 0 1 1 1 1 1 2 2 2 1 1 2 3 5 7 10 11 12 12 12 12 11 10 9 9 8
2 1 1 1 1 0 1 2 3 3 2 2 1 2 3 2 2 1 1 1 2 2 1 3 2 4 5 8 10 12 13 13 13 12 11 10 10 10
2 2 1 0 0 0 1 1 1 2 4 4 3 4 3 4 2 2 2 2 3 3 1 3 2 4 5 7 10 11 12 12 12 12 11 11 11 11
2 2 2 1 1 1 0 1 1 2 3 3 4 5 5 4 4 4 4 2 2 2 1 2 3 3 4 4 7 9 10 11 11 11 11 11 11 12
1 1 1 1 2 0 1 1 2 3 4 3 4 5 5 4 3 1 1 1 2 3 1 2 2 2 2 3 4 7 9 9 10 11 11 12 12 10
0 1 1 0 0 1 2 2 2 4 3 3 4 4 4 4 3 3 4 3 2 2 3 2 1 0 2 2 2 2 4 7 9 9 10 11 10 7
0 1 2 2 2 2 2 3 5 4 2 2 3 3 3 2 3 3 3 4 3 3 3 2 1 1 1 2 2 2 3 3 3 5 7 8 8 7
1 2 2 3 3 3 2 3 4 2 1 1 2 3 3 3 3 3 4 4 4 5 4 3 2 3 2 2 3 2 2 3 3 2 3 4 6 9
1 2 2 2 2 2 4 4 2 1 1 2 3 3 3 4 3 2 2 2 3 3 3 2 3 3 3 3 3 3 2 3 2 2 2 2 3 3
1 2 3 2 1 2 3 2 1 1 1 2 3 3 2 2 1 1 2 1 1 3 4 4 3 4 3 3 3 3 3 3 2 2 2 2 3 4
1 2 3 2 3 3 2 2 2 1 1 2 2 2 2 2 2 1 1 1 1 3 3 3 2 2 3 3 3 4 3 3 3 3 2 2 3 4
4 2 1 1 1 2 2 2 2 2 2 2 2 2 2 2 2 2 0 1 2 3 3 3 1 2 2 3 4 4 3 3 3 3 3 3 4 4
3 0 1 1 2 2 2 2 2 2 1 1 1 2 2 2 2 2 2 2 2 3 3 2 1 1 2 4 4 3 4 3 2 2 3 3 4 5
0 1 2 2 2 2 2 2 2 2 1 1 1 1 1 2 2 2 2 2 3 3 3 2 2 3 4 5 4 3 4 3 3 3 3 2 2 3
1 2 2 2 2 2 2 1 1 1 1 1 1 2 2 2 2 3 3 3 3 2 3 4 5 5 2 1 2 3 3 5 5 4 3 2 2 2
1 2 2 2 2 2 1 1 1 1 2 2 2 2 2 2 3 4 3 3 3 3 4 4 3 1 1 2 4 4 4 4 5 6 5 5 4 4
2 2 2 2 2 2 1 1 1 1 2 2 2 2 2 2 3 3 3 3 3 3 3 3 2 2 2 3 4 4 4 4 3 3 4 7 7 8
Wind_Direction
242 224 223 265 227 198 165 158 159 204 260 264 261 251 220 203 205 209 218 220 213 209 206 206 206 205 205 208 215 219 221 222 227 232 235 234 229 226
241 238 292 291 290 273 158 150 152 169 220 250 247 258 219 206 209 208 222 221 215 210 210 209 209 207 206 205 208 214 216 221 229 232 233 234 235 236
288 269 280 287 4 342 101 120 143 154 190 262 269 296 236 233 205 213 220 216 222 216 214 214 212 212 211 208 207 211 216 221 229 234 235 234 234 239
258 253 265 276 313 8 85 146 172 171 171 220 282 303 262 245 232 220 223 226 225 222 219 219 219 219 217 215 211 214 220 224 229 234 238 238 234 237
218 209 235 186 228 237 166 178 225 213 154 173 243 270 286 299 306 279 257 250 233 234 226 225 225 224 224 223 219 220 225 230 233 234 238 240 236 233
209 195 198 182 195 194 166 200 193 113 126 144 226 295 298 302 46 292 300 281 261 246 228 232 234 231 231 230 228 228 229 232 236 236 236 237 237 236
243 214 190 150 144 159 173 188 167 146 142 137 223 335 312 323 273 252 259 283 285 255 230 241 231 233 233 235 236 235 232 233 234 235 234 234 235 237
228 250 234 97 88 120 136 164 169 169 179 182 207 221 245 243 249 251 243 303 290 287 211 262 224 241 239 230 238 236 234 232 233 234 233 233 234 237
207 212 223 247 179 200 318 340 286 220 189 184 203 225 229 232 215 236 231 220 247 262 219 267 253 252 251 244 240 236 232 229 228 230 232 235 237 238
215 193 189 223 249 211 200 339 302 279 243 216 215 230 233 228 212 216 222 238 276 279 195 240 263 258 261 253 247 234 229 228 229 230 231 234 237 238
228 173 178 213 275 292 138 251 293 294 289 277 260 252 249 240 207 166 176 165 278 278 236 206 253 268 274 269 256 239 235 236 236 236 236 237 239 238
339 319 295 303 303 140 176 204 252 271 293 309 305 300 278 271 246 204 197 195 219 262 250 206 238 257 306 287 275 269 248 244 243 240 239 238 235 227
243 301 295 306 314 291 244 220 239 256 275 281 291 294 285 270 259 238 209 192 200 237 242 185 213 218 218 283 296 266 232 233 238 246 245 241 229 211
229 274 282 297 299 290 275 267 269 266 267 286 295 292 285 277 266 252 240 229 222 226 232 180 189 204 209 246 273 281 267 248 225 234 232 233 229 226
235 295 312 299 294 295 293 301 303 254 241 258 269 267 260 264 270 274 274 265 272 274 262 222 208 214 202 223 241 247 264 269 238 240 226 213 216 213
336 343 345 348 350 327 326 326 325 258 229 247 265 270 281 290 285 267 252 250 261 283 286 275 235 209 227 241 237 247 236 233 244 250 232 237 227 217
71 43 31 21 8 353 346 338 340 347 304 286 281 287 289 291 289 282 264 226 227 263 281 297 306 262 222 223 240 250 246 250 238 229 219 241 248 234
98 69 15 323 304 303 310 318 326 315 296 294 292 287 282 282 291 302 289 238 251 260 266 267 290 343 342 304 237 237 247 253 250 233 208 213 245 253
98 53 292 278 280 281 281 281 290 291 294 295 288 295 297 292 284 280 275 264 268 270 273 268 247 208 256 278 277 249 234 254 247 240 228 221 235 249
179 251 271 272 275 283 286 286 292 306 309 301 292 301 298 294 292 288 268 258 263 269 277 279 255 237 234 243 250 271 262 243 241 243 245 251 251 254
250 262 262 265 270 271 275 285 298 296 296 291 300 294 295 294 294 288 278 277 269 267 270 269 266 271 269 292 291 282 278 271 259 249 231 231 253 252
253 258 270 270 267 266 261 269 299 316 312 298 286 287 287 285 284 282 274 272 269 263 265 274 285 292 251 248 271 273 278 291 295 284 253 226 212 218
245 252 264 269 269 274 273 263 252 270 275 284 292 293 291 284 282 277 271 262 266 273 278 286 297 279 254 247 257 269 277 286 293 297 294 286 263 249
Height
1517 1517 1517 1517 1517 1517 1517 1517 1518 1516 1516 1516 1516 1515 1515 1515 1515 1514 1515 1515 1515 1514 1514 1514 1514 1513 1513 1513 1513 1513 1513 1513 1514 1514 1514 1514 1515 1516
1516 1515 1515 1515 1515 1515 1515 1515 1515 1515 1514 1513 1513 1513 1513 1513 1513 1513 1513 1512 1512 1512 1512 1512 1511 1511 1511 1511 1511 1511 1511 1511 1511 1512 1512 1512 1513 1513
1513 1513 1513 1513 1513 1513 1512 1512 1512 1512 1511 1511 1511 1511 1510 1510 1510 1510 1510 1510 1510 1509 1509 1509 1509 1509 1509 1509 1509 1509 1509 1509 1509 1509 1510 1510 1510 1510
1511 1511 1510 1511 1510 1510 1510 1509 1509 1509 1509 1508 1508 1508 1508 1508 1508 1508 1508 1507 1507 1507 1507 1507 1507 1507 1507 1507 1507 1507 1507 1507 1507 1507 1507 1507 1507 1507
1509 1509 1508 1508 1507 1507 1507 1507 1507 1507 1506 1506 1506 1505 1505 1505 1505 1505 1504 1504 1504 1504 1504 1504 1504 1504 1504 1504 1504 1504 1504 1504 1504 1504 1504 1504 1504 1505
1507 1506 1506 1506 1505 1505 1505 1504 1504 1504 1504 1503 1503 1503 1502 1502 1502 1502 1501 1502 1501 1501 1501 1501 1501 1501 1501 1501 1501 1501 1501 1501 1501 1501 1501 1501 1501 1502
1504 1504 1504 1503 1503 1502 1502 1502 1502 1501 1501 1500 1500 1500 1499 1499 1499 1499 1498 1498 1498 1498 1497 1497 1497 1497 1497 1497 1497 1497 1497 1497 1497 1497 1498 1498 1498 1498
1502 1501 1501 1501 1501 1500 1500 1499 1499 1499 1498 1498 1497 1497 1497 1497 1496 1496 1495 1495 1494 1495 1494 1494 1494 1493 1493 1493 1493 1493 1493 1493 1494 1494 1494 1494 1495 1495
1499 1499 1499 1499 1498 1498 1497 1497 1496 1496 1496 1495 1495 1494 1494 1494 1493 1493 1492 1492 1491 1491 1491 1490 1490 1489 1490 1489 1489 1489 1490 1490 1490 1490 1490 1490 1491 1491
1497 1496 1496 1496 1496 1496 1495 1494 1494 1493 1493 1492 1492 1491 1491 1491 1491 1491 1490 1489 1489 1488 1488 1487 1486 1486 1486 1486 1486 1486 1486 1486 1486 1486 1486 1486 1486 1486
1494 1493 1494 1493 1493 1493 1492 1492 1491 1491 1491 1490 1490 1489 1489 1488 1488 1488 1487 1486 1485 1485 1485 1484 1483 1482 1482 1482 1482 1482 1482 1482 1482 1482 1482 1482 1482 1482
1492 1492 1491 1491 1491 1490 1489 1489 1488 1488 1488 1487 1487 1486 1486 1485 1485 1485 1484 1483 1482 1482 1481 1481 1480 1479 1478 1478 1478 1478 1477 1477 1477 1477 1477 1477 1477 1477
1489 1489 1489 1488 1488 1487 1487 1486 1486 1486 1485 1484 1484 1483 1482 1482 1482 1481 1481 1481 1480 1479 1479 1478 1477 1476 1476 1474 1474 1474 1474 1473 1473 1473 1472 1473 1473 1473
1487 1487 1487 1486 1486 1485 1484 1484 1483 1483 1482 1481 1481 1480 1479 1478 1478 1478 1478 1477 1477 1477 1476 1475 1474 1473 1472 1471 1470 1469 1469 1469 1469 1468 1468 1468 1468 1468
1485 1485 1484 1484 1483 1483 1482 1481 1480 1479 1479 1478 1477 1476 1476 1475 1475 1474 1474 1473 1473 1473 1472 1472 1471 1470 1469 1468 1466 1466 1465 1464 1464 1464 1463 1463 1463 1463
1483 1482 1482 1481 1481 1480 1479 1478 1477 1477 1476 1475 1474 1473 1473 1472 1471 1470 1469 1469 1468 1468 1468 1467 1467 1466 1464 1464 1463 1461 1461 1460 1460 1459 1459 1459 1459 1458
1481 1480 1479 1479 1478 1477 1476 1476 1475 1474 1473 1472 1471 1470 1469 1468 1467 1466 1465 1465 1464 1463 1463 1463 1462 1462 1461 1460 1458 1457 1456 1456 1455 1455 1454 1454 1454 1454
1479 1477 1477 1477 1476 1475 1474 1473 1472 1471 1470 1469 1468 1467 1465 1465 1464 1463 1462 1461 1460 1459 1459 1458 1457 1456 1456 1455 1455 1453 1452 1451 1451 1450 1450 1449 1448 1449
1476 1475 1475 1475 1474 1473 1472 1471 1469 1468 1467 1466 1465 1464 1463 1462 1461 1460 1459 1458 1457 1456 1455 1454 1454 1452 1451 1450 1449 1450 1448 1446 1446 1445 1445 1444 1444 1444
1474 1473 1473 1472 1471 1470 1469 1468 1466 1465 1464 1463 1462 1461 1460 1458 1457 1456 1455 1454 1453 1452 1451 1450 1449 1449 1447 1446 1445 1444 1444 1443 1441 1440 1440 1439 1439 1440
1472 1471 1470 1470 1469 1468 1466 1465 1464 1462 1461 1460 1459 1458 1457 1455 1454 1453 1451 1450 1449 1448 1447 1446 1445 1445 1444 1443 1442 1440 1439 1439 1438 1437 1436 1435 1434 1434
1470 1469 1468 1468 1466 1465 1464 1462 1461 1459 1458 1457 1456 1455 1454 1452 1451 1449 1448 1446 1445 1444 1443 1442 1442 1441 1439 1438 1436 1435 1434 1433 1433 1433 1432 1432 1430 1429
1469 1467 1466 1465 1464 1462 1461 1460 1458 1457 1456 1454 1453 1451 1450 1449 1447 1446 1444 1443 1442 1441 1440 1439 1437 1437 1435 1434 1433 1431 1430 1429 1428 1427 1427 1427 1427 1426